Regional Weather Roundup
Issued by NWS

Home | Current Version | Previous Version | Text Only | Print | Product List | Glossary On
Versions: 1 2 3 4 5 6 7 8 9 10 11 12 13 14 15 16 17 18 19 20 21 22 23 24 25 26 27 28 29 30 31 32 33 34 35 36 37 38 39 40 41 42 43 44 45 46 47 48 49 50
000
ASUS43 KOAX 020410
RWRNE

WEATHER ROUNDUP FOR NEBRASKA
NATIONAL WEATHER SERVICE OMAHA NE
1100 PM CDT WED OCT 01 2014

NOTES: SATELLITE DATA IS BEING USED TO AUGMENT CLOUD COVER ABOVE
       12000 FEET.
       "FAIR" INDICATES FEW OR NO CLOUDS BELOW 12,000 FEET WITH NO
       SIGNIFICANT WEATHER AND/OR OBSTRUCTIONS TO VISIBILITY.

  * THESE STATIONS DO NOT REPORT WEATHER SUCH AS RAIN...SNOW OR FOG.

NEZ001>004-019>022-054>056-020500-
NEBRASKA PANHANDLE

CITY           SKY/WX    TMP DP  RH WIND       PRES   REMARKS
SCOTTSBLUFF    CLOUDY    46  44  93 NW3       30.02R
ALLIANCE       CLOUDY    47  45  93 NE6       30.00S
CHADRON        CLOUDY    50  47  89 S3        30.00R
KIMBALL        PTCLDY    42  41  97 NW9       30.00S
SIDNEY         MOCLDY    45  43  93 N13       30.01S
$$

NEZ057>060-069>072-079>082-020500-
SOUTHWEST NEBRASKA

CITY           SKY/WX    TMP DP  RH WIND       PRES   REMARKS
NORTH PLATTE   TSTM      53  50  89 NW29G45   29.94R FOG
IMPERIAL       LGT RAIN  50  46  86 N23G39    29.94F
LEXINGTON      PTCLDY    62  54  76 E9        29.81F
MCCOOK         CLOUDY    55  50  83 NW29G43   29.84R
OGALLALA       LGT RAIN  51  48  89 NW24G32   29.97F
$$

NEZ005>010-023>029-035>040-094-020500-
NORTH CENTRAL NEBRASKA

CITY           SKY/WX    TMP DP  RH WIND       PRES   REMARKS
VALENTINE      LGT RAIN  53  48  83 N10       29.94R
AINSWORTH      CLOUDY    52  50  93 N15       29.92S
BROKEN BOW     MOCLDY    63  50  62 NE7G18    29.85R
O`NEILL        CLEAR     57  51  81 N9        29.88R
ORD            PTCLDY    60  50  69 N6        29.82S
THEDFORD       RAIN      53  51  94 N21G30    29.95S
$$

NEZ041-046>049-061>064-073>077-083>087-020500-
SOUTH CENTRAL NEBRASKA

CITY           SKY/WX    TMP DP  RH WIND       PRES   REMARKS
GRAND ISLAND   MOCLDY    63  57  81 NW8       29.84S
AURORA         CLOUDY    63  59  88 NE6       29.83R
HASTINGS       PTCLDY    60  56  86 N8        29.81S
HEBRON         MOCLDY    64  59  81 E3        29.78S
HOLDREGE       PTCLDY    59  56  88 NE8       29.81S
KEARNEY *      MOCLDY    61  55  82 NE9       29.82R
YORK           TSTM      64  64 100 W10       29.84R
$$

NEZ011>018-030>034-042>045-020500-
NORTHEAST NEBRASKA

CITY           SKY/WX    TMP DP  RH WIND       PRES   REMARKS
NORFOLK        CLOUDY    62  55  77 CALM      29.83R
ALBION         LGT RAIN  64  51  63 N6        29.83R
BLAIR          PTCLDY    67  62  86 E3        29.80R
COLUMBUS *     CLOUDY    64  55  72 E7G16     29.83S
FREMONT        CLOUDY    67  64  89 CALM      29.80S
TEKAMAH        CLOUDY    64  62  93 NW5       29.79R
WAYNE          MOCLDY    58  54  86 CALM      29.83R
$$

NEZ050>053-065>068-078-088>093-020500-
SOUTHEAST NEBRASKA

CITY           SKY/WX    TMP DP  RH WIND       PRES   REMARKS
LINCOLN        MOCLDY    64  61  90 N6        29.80R
OMAHA EPPLEY   MOCLDY    64  61  90 CALM      29.79R
BEATRICE       MOCLDY    66  62  87 NE7       29.77S FOG
FALLS CITY     PTCLDY    67  65  93 NE5       29.76R
NEBRASKA CITY  PTCLDY    64  64 100 CALM      29.78S FOG
PLATTSMOUTH      N/A     64  62  93 E3        29.78S FOG
$$

NEZ044-045-051>053-067-020500-
OMAHA AREA

CITY           SKY/WX    TMP DP  RH WIND       PRES   REMARKS
OMAHA EPPLEY   MOCLDY    64  61  90 CALM      29.79R
BLAIR          PTCLDY    67  62  86 E3        29.80R
FREMONT        CLOUDY    67  64  89 CALM      29.80S
MILLARD        PTCLDY    63  62  96 CALM      29.78S FOG
OFFUTT AFB     PTCLDY    62  62 100 NE2       29.78R
PLATTSMOUTH      N/A     64  62  93 E3        29.78S FOG
WAHOO          FAIR      64  61  88 CALM      29.79F
$$


USA.gov is the U.S. government's official web portal to all federal, state and local government web resources and services.